Other Public Products
Issued by NWS Grand Forks, ND

Home | Current Version | Previous Version | Graphics & Text | Print | Product List | Glossary On
Versions: 1 2 3 4 5 6 7 8 9 10 11 12 13 14 15 16 17 18 19 20 21 22 23 24 25 26 27 28 29 30 31 32 33 34 35 36 37 38 39 40 41 42 43 44 45 46 47 48 49 50
000
FPUS83 KFGF 190310
OPUFGF
PRAIRIE TO PINES WEATHER ROUNDUP
NATIONAL WEATHER SERVICE EASTERN NORTH DAKOTA/GRAND FORKS ND
1000 PM CDT THU SEP 18 2014

 **SATELLITE DATA USED TO AUGMENT SKY COVER AT AUTOMATED STATIONS**
 *****  WEATHER ACROSS EASTERN NORTH DAKOTA  *****

CITY           SKY/WX    TMP DP  RH WIND       PRES   REMARKS
GRAND FORKS    CLOUDY    69  59  70 S17G23    29.69F
GRAND FORKS AF MOCLDY    69  62  79 S17       29.69F
GRAND CITY NWS   N/A     68 N/A N/A S16         N/A
BUXTON         NOT AVBL
DEVILS LAKE    CLOUDY    72  57  60 S17G24    29.64F
FARGO          MOCLDY    69  56  62 S17G26    29.77S
WAHPETON ARPT  MOCLDY    64  54  68 S13G20    29.82R
$$

 *****  WEATHER ACROSS CENTRAL AND WESTERN NORTH DAKOTA  *****

CITY           SKY/WX    TMP DP  RH WIND       PRES   REMARKS
JAMESTOWN      CLOUDY    68  59  73 S16       29.73R
BISMARCK       CLOUDY    72  62  71 S8        29.69R
MINOT          CLOUDY    73  60  63 S6        29.57R
MINOT AFB      CLOUDY    72  63  73 SW10      29.55S
GARRISON         N/A     71  64  78 W9        29.64R
WILLISTON      CLOUDY    66  53  63 E3        29.59S
DICKINSON      CLOUDY    66  60  81 S9        29.66F
HETTINGER      CLOUDY    71  61  70 S9        29.71S
$$

 *****  OTHER OBSERVATIONS NORTHEAST NORTH DAKOTA  *****

CITY           SKY/WX    TMP DP  RH WIND       PRES   REMARKS
WALHALLA         N/A     66  63  88 S15G23    29.61F
LANGDON        FAIR      64  59  82 S18G30    29.63F
CAVALIER       FAIR      66  59  77 S16       29.63F
GRAFTON        FAIR      68  59  73 S20G28    29.66F
CANDO          FAIR      68  59  73 S12       29.62F
FORT TOTTEN      N/A     71  59  65 S14       29.95S
ROLLA          FAIR      68  61  77 S17G23    29.60F
RUGBY          FAIR      70  63  78 S12G18    29.59F
 ***** THE ABOVE OBSERVATIONS ARE NON NWS ARE NOT QUALITY
        CONTROLLED AND MAY MIS-REPORT RAIN FOR SNOW...
$$

 *****  OTHER OBSERVATIONS SOUTHEAST NORTH DAKOTA *****

CITY           SKY/WX    TMP DP  RH WIND       PRES   REMARKS
COOPERSTOWN    NOT AVBL
VALLEY CITY    FAIR      66  64  94 S14       29.74F
OAKES            N/A     64  61  88 S12       29.78S
GWINNER        CLEAR     66  57  72 S12       29.80S
BUFFALO        NOT AVBL
WYNDMERE         N/A     66  57  72 S8          N/A
 ***** THE ABOVE OBSERVATIONS ARE NON NWS ARE NOT QUALITY
       CONTROLLED AND MAY MIS-REPORT RAIN FOR SNOW...
$$

  *****  WEATHER ACROSS NORTHERN MINNESOTA  *****

CITY           SKY/WX    TMP DP  RH WIND       PRES   REMARKS
FLAG ISLAND    MOCLDY    59  54  82 S23       29.73F
WARROAD        CLOUDY    61  55  82 S14G23    29.75S
ROSEAU         CLOUDY    63  55  77 S18G25    29.73S
HALLOCK        MOCLDY    66  57  72 S20       29.66F
THF RVR FALLS  MOCLDY    64  55  72 S15       29.77R
HALSTAD          N/A     67  54  61 S17         N/A
FOSSTON        MOCLDY    63  54  72 S15G21    29.80F
BAUDETTE       PTCLDY    57  52  83 S9        29.79F
WASKISH        FAIR      57  54  88 SE6       29.83F
CROOKSTON      MOCLDY    66  57  72 S18G24    29.75S
$$
  *****  WEATHER ACROSS CENTRAL AND WEST MINNESOTA  *****

CITY           SKY/WX    TMP DP  RH WIND       PRES   REMARKS
BEMIDJI        PTCLDY    56  53  89 SE15      29.86F
PARK RAPIDS    PTCLDY    59  55  87 SE13      29.88F
WADENA         CLEAR     61  54  77 SE5       29.90R
DETROIT LAKES  PTCLDY    63  55  77 S13       29.84F
MOORHEAD       MOCLDY    68  59  73 S13G18    29.79F
FERGUS FALLS   MOCLDY    64  52  63 S15       29.84F
ELBOW LAKE     FAIR      63  53  71 S16       29.86S
MORRIS MN      PTCLDY    64  54  68 SE13      29.86S
STAPLES        PTCLDY    61  54  77 SE7       29.91S
WHEATON        PTCLDY    63  54  72 SE14G20   29.85R
$$
  *****  WEATHER ELSEWHERE ACROSS MINNESOTA  *****

CITY           SKY/WX    TMP DP  RH WIND       PRES   REMARKS
DULUTH         CLOUDY    47  45  93 SE13      30.01F FOG
INTRNTL FALLS  MOCLDY    52  48  86 SE8G18    29.87F
ELY            CLOUDY    45  43  93 S6        29.99F FOG
CLOQUET        CLOUDY    46  45  93 E7        30.01F FOG
BRAINERD       CLEAR     58  55  90 SE8       29.94S
HIBBING        CLOUDY    48  46  93 SE8       29.98F
ALEXANDRIA     PTCLDY    63  51  65 S15       29.91R
SAINT CLOUD    CLEAR     63  53  70 SE12      29.94F
MINNEAPOLIS    MOCLDY    62  54  74 SE13      29.99F
$$

  *****  WEATHER ACROSS SOUTH DAKOTA  *****

CITY           SKY/WX    TMP DP  RH WIND       PRES   REMARKS
SIOUX FALLS    MOCLDY    65  56  72 SE16G23   29.91S
BROOKINGS      NOT AVBL
WATERTOWN      MOCLDY    63  55  75 S15       29.86F
HURON          PTCLDY    67  57  70 SE15G21   29.82S
SISSETON         N/A     62  57  83 S9        29.81F
ABERDEEN       CLOUDY    68  57  68 S16       29.78S
MITCHELL       CLEAR     67  59  75 SE15      29.85S
PIERRE         CLEAR     70  58  65 SE12      29.73R
MOBRIDGE       MOCLDY    68  61  78 SE14      29.70S
RAPID CITY     MOCLDY    71  53  52 SE6       29.73R
$$

  *****  SOME WEATHER IN NEARBY STATES *****

CITY           SKY/WX    TMP DP  RH WIND       PRES   REMARKS
GLASGOW MT     MOCLDY    69  52  54 SW5       29.62R
GREAT FALLS MT CLEAR     60  44  55 W9        29.74R
CHEYENNE WY    CLEAR     70  37  29 S13       30.01R
SCOTTSBLUFF NE CLEAR     70  62  76 SE9       29.86R
OMAHA NE       CLEAR     65  57  75 SE14      29.98R
DES MOINES IA  CLEAR     63  55  75 SE7       30.05R
DAVENPORT IA   CLEAR     55  49  80 E6        30.11R
CHICAGO IL     PTCLDY    58  53  84 N5        30.15S
EAU CLAIRE WI  CLOUDY    56  52  86 SE7       30.07F
LA CROSSE WI   CLEAR     60  54  80 SE8       30.09R
$$

  *****  SOME NATIONAL WEATHER *****

CITY           SKY/WX    TMP DP  RH WIND       PRES   REMARKS
LA GUARDIA NY  PTCLDY    68  50  52 N10       30.08R
RALEIGH NC     CLOUDY    72  60  66 SE5       30.06R
ATLANTA GA     MOCLDY    74  67  78 CALM      30.02R
NEW ORLEANS LA CLOUDY    79  69  71 S7        29.93R
OKLAHOMA CITY  PTCLDY    72  66  81 S3        29.96R
ALBUQUERQUE NM MOCLDY    69  57  65 SE9       30.05R
SALT LAKE CITY PTCLDY    74  53  48 N21       29.80R
LOS ANGELES CA PTCLDY    71  61  70 W23       29.83S
BOISE ID       PTCLDY    73  43  33 CALM      29.79R
SEATTLE WA     CLOUDY    65  56  72 SW12      29.92R
$$

*** WEATHER ACROSS MANITOBA...SASKATCHEWAN AND ONTARIO ***
                ***ONTARIO***

CITY           SKY/WX    TMP DP  RH WIND       PRES   REMARKS
GERALDTON      MOCLDY    36  30  80 S3        30.09F
THUNDER BAY    CLOUDY    45  39  81 SE7       30.09F
SIOUX LOOKOUT  MOCLDY    48  45  87 S8G20     29.86F
TORONTO        CLEAR     45  37  76 N9        30.23R
BIG TROUT LK   CLEAR     48  36  61 S17G24    29.74F
PICKLE LAKE    NOT AVBL
DRYDEN         MOCLDY    50  45  81 S17G24    29.83F
KENORA         MOCLDY    55  50  82 S15G22    29.76F
$$
                *** MANITOBA***

CITY           SKY/WX    TMP DP  RH WIND       PRES   REMARKS
BRANDON        MOCLDY    63  59  88 SE8       29.52F
DAUPHIN        PTCLDY    72  61  68 SW16G23   29.43F
ISLAND LAKE    NOT AVBL
PILOT MOUND    NOT AVBL
THE PAS        NOT AVBL
THOMPSON       LGT RAIN  52  52 100 SW3       29.44F
WINNIPEG       PTCLDY    66  57  72 S23G31    29.60F
LYNN LAKE      CLOUDY    48  46  93 W6        29.46S
CHURCHILL      CLOUDY    41  39  93 SW9G17    29.40F FOG
GILLAM         LGT RAIN  48  48 100 S12       29.45F VSB 3/4
$$
                ***SASKATCHEWAN***

CITY           SKY/WX    TMP DP  RH WIND       PRES   REMARKS
ESTEVAN        MOCLDY    59  54  82 SW7       29.55S
KINDERSLEY     CLOUDY    63  52  67 N12       29.55R
LLOYDMINSTER   MOCLDY    55  46  71 NW6       29.57R
PRINCE ALBERT  CLOUDY    55  52  88 W2        29.51R
REGINA         PTCLDY    64  55  72 SW5       29.50R
YORKTON        MOCLDY    64  57  77 S6        29.46F


USA.gov is the U.S. government's official web portal to all federal, state and local government web resources and services.